This is the latest recevied weather packets stored in our database for station/object KY4OP-13. If no packets are shown the sender has not sent any weather packets the latest 10 day(s).
| Time | Temp. | Humidity | Pressure | Rain* | Wind** | Luminosity | Snow |
|---|---|---|---|---|---|---|---|
| 1777922551 | 23.33° C | 37% | 1013 hPa | 0 mm | - | - | - |
| 1777922249 | 22.78° C | 39% | 1013.1 hPa | 0 mm | - | - | - |
| 1777921946 | 23.89° C | 37% | 1013.1 hPa | 0 mm | - | - | - |
| 1777921641 | 24.44° C | 37% | 1013.2 hPa | 0 mm | - | - | - |
| 1777921338 | 24.44° C | 36% | 1013.1 hPa | 0 mm | - | - | - |
| 1777921034 | 24.44° C | 37% | 1013.2 hPa | 0 mm | - | - | - |
| 1777920731 | 25° C | 36% | 1013.1 hPa | 0 mm | - | - | - |
| 1777920427 | 24.44° C | 37% | 1013.1 hPa | 0 mm | - | - | - |
| 1777920123 | 24.44° C | 36% | 1013.2 hPa | 0 mm | - | - | - |
| 1777919819 | 24.44° C | 38% | 1013.4 hPa | 0 mm | - | - | - |
| 1777919516 | 24.44° C | 36% | 1013.4 hPa | 0 mm | - | - | - |
| 1777919214 | 24.44° C | 38% | 1013.6 hPa | 0 mm | - | - | - |
| 1777918912 | 23.89° C | 36% | 1013.5 hPa | 0 mm | - | - | - |
| 1777918609 | 23.89° C | 39% | 1013.9 hPa | 0 mm | - | - | - |
| 1777918306 | 23.33° C | 37% | 1013.8 hPa | 0 mm | - | - | - |
| 1777918005 | 23.89° C | 36% | 1013.9 hPa | 0 mm | - | - | - |
| 1777917704 | 23.89° C | 37% | 1013.8 hPa | 0 mm | - | - | - |
| 1777917400 | 23.89° C | 35% | 1013.9 hPa | 0 mm | - | - | - |
| 1777917097 | 24.44° C | 35% | 1014.1 hPa | 0 mm | - | - | - |
| 1777916796 | 23.89° C | 39% | 1014.2 hPa | 0 mm | - | - | - |
| 1777916491 | 23.33° C | 37% | 1014.5 hPa | 0 mm | - | - | - |
| 1777916189 | 22.78° C | 39% | 1014.3 hPa | 0 mm | - | - | - |
| 1777915886 | 23.33° C | 36% | 1014.3 hPa | 0 mm | - | - | - |
| 1777915582 | 23.33° C | 40% | 1014.3 hPa | 0 mm | - | - | - |
| 1777915279 | 22.78° C | 37% | 1014.3 hPa | 0 mm | - | - | - |
* Rain latest hour (hover to see other rain measurements)
** Current wind speed in m/s (hover to see current wind gust speed)